Regional Weather Roundup
Issued by NWS Midland/Odessa, TX

Skip options and go directly to product.
Home | Oldest Version | Previous Version | Current Version | All | Text Only | Save Text | Print | Product List | Glossary On

Skip product version selection by date and time.   
493
ASUS44 KMAF 301110
RWRMAF
MIDLAND AREA WEATHER ROUNDUP
NATIONAL WEATHER SERVICE MIDLAND TX
600 AM CDT SUN AUG 30 2015

...IN SOUTHWEST TEXAS AND SOUTHEAST NEW MEXICO...

CITY           SKY/WX    TMP DP  RH WIND       PRES   REMARKS
ALPINE         CLEAR     57  50  77 W5        30.21S
ANDREWS        FAIR      62  59  88 CALM      30.12S
ARTESIA        CLEAR     64  64 100 CALM      30.14S
BIG SPRING     PTCLDY    63  55  75 N5        30.11R
CARLSBAD       CLEAR     67  52  58 S5        30.11S
DRYDEN           N/A     77  54  44 VRB3      30.02S
FORT STOCKTON  PTCLDY    67  55  65 SE3       30.08S
GUAD PASS      CLEAR     61  53  75 NE20      30.22F
HOBBS            N/A     61  61 100 CALM      30.15S
MARFA          CLEAR     54  48  82 N6        30.18S
MIDLAND AIRPK  CLEAR     65  58  78 CALM      30.10S
MIDLAND INTL   CLEAR     63  57  81 CALM      30.09S
ODESSA         CLEAR     68  54  60 E6        30.10S
PECOS          CLEAR     67  55  65 N3        30.07S
PRESIDIO       NOT AVBL
SEMINOLE       CLEAR     59  55  85 NW5       30.14S
SNYDER         MOCLDY    68  55  63 W5        30.08S
WINK           CLEAR     66  58  75 E5        30.07S
$$
...OTHER STATIONS IN TEXAS...

CITY           SKY/WX    TMP DP  RH WIND       PRES   REMARKS
ABILENE        CLOUDY    68  63  84 S5        30.05S
AMARILLO       CLEAR     64  56  75 NW6       30.13S
AUSTIN         CLOUDY    73  68  84 CALM      30.01R
BROWNSVILLE    CLEAR     75  74  96 CALM      29.94F
CORPUS CHRISTI PTCLDY    71  61  70 CALM      29.97R
DALLAS FTW     CLOUDY    77  66  68 SW5       29.97R
DEL RIO        CLOUDY    77  60  55 E6        30.00R
EL PASO        PTCLDY    72  55  55 E6        30.12R
HOUSTON INT    MOCLDY    70  66  87 CALM      30.00R
LUBBOCK        PTCLDY    60  55  83 W5        30.11F
SAN ANGELO     CLOUDY    72  63  73 E5        30.04S
SAN ANTONIO    CLOUDY    75  65  70 W3        30.03R
WACO           CLOUDY    79  65  62 S8        29.99R
WICHITA FALLS  NOT AVBL
$$
...OTHER LOCATIONS IN NEW MEXICO...

CITY           SKY/WX    TMP DP  RH WIND       PRES   REMARKS
ALAMAGORDO     CLEAR     63  55  77 NW3       30.15R
ALBUQUERQUE    CLEAR     67  48  50 NE7       30.23S
CANNON AFB     NOT AVBL
CLOVIS         CLEAR     59  54  82 NW7       30.17S
HOLLOMAN AFB   NOT AVBL
ROSWELL        CLEAR     64  57  78 CALM      30.13S
RUIDOSO        CLEAR     57  46  67 MISG      30.34S
SANTA FE       CLEAR     55  49  80 N6        30.29S
TRUTH OR CONSE CLEAR     67  53  61 NW7       30.17F
TUCUMCARI      CLEAR     61  54  77 W7        30.14S
$$

USA.gov is the U.S. government's official web portal to all federal, state and local government web resources and services.